This demonstration page uses our WeatherBlox Daily Observations layout. Learn more.

Left ArrowRight Arrow

Hourly Observations for June 7, 2017

Temp ( °F °C ) Dew Point ( °F °C ) Humidity (%) Winds ( mph kmh ) Pressure ( in mb ) Visibility ( mi km ) Precip ( " mm )
12:53 am 00:53 Mostly Cloudy 73 22.8 71 21.7 94 94 W 5 7 29.76 1008 10 16 0.00 0.00
1:53 am 01:53 Clear 70 21.1 70 21.1 100 100 NW 3 6 29.75 1007 9 14 0.00 0.00
1:59 am 01:59 Clear with Mist and Fog 70 21.1 70 21.1 100 100 Calm 29.74 1007 2 3 0.00 0.00
2:06 am 02:06 Clear with Mist and Fog 70 21.1 70 21.1 100 100 Calm 29.74 1007 3 5 0.00 0.00
2:53 am 02:53 Clear 69 20.6 69 20.6 100 100 Calm 29.73 1007 10 16 0.00 0.00
3:15 am 03:15 Mostly Clear with Mist and Fog 69 20.6 69 20.6 100 100 Calm 29.74 1007 3 4 0.00 0.00
3:21 am 03:21 Mostly Cloudy with Mist and Fog 69 20.6 69 20.6 100 100 Calm 29.74 1007 1 2 0.00 0.00
3:30 am 03:30 Mostly Cloudy with Fog 69 20.6 69 20.6 100 100 Calm 29.74 1007 1 1 0.00 0.00
3:38 am 03:38 Mostly Cloudy with Mist and Fog 69 20.6 69 20.6 100 100 Calm 29.74 1007 1 2 0.00 0.00
3:45 am 03:45 Partly Cloudy with Mist and Fog 69 20.6 69 20.6 100 100 Calm 29.74 1007 3 5 0.00 0.00
3:53 am 03:53 Mostly Clear 69 20.6 69 20.6 100 100 Calm 29.73 1007 10 16 0.00 0.00
4:53 am 04:53 Mostly Clear with Mist and Fog 68 20 68 20 100 100 Calm 29.74 1007 6 10 0.00 0.00
5:02 am 05:02 Mostly Clear with Mist and Fog 68 20 68 20 100 100 Calm 29.74 1007 3 4 0.00 0.00
5:11 am 05:11 Mostly Clear 68 20 68 20 100 100 N 3 6 29.74 1007 7 11 0.00 0.00
5:53 am 05:53 Clear 68 20 68 20 100 100 N 3 6 29.74 1007 7 11 0.00 0.00
6:43 am 06:43 Mostly Cloudy 68 20 66 18.9 93 93 NE 15 24 29.77 1008 10 16 0.00 0.00
6:53 am 06:53 Cloudy 68 20 65 18.3 90 90 NE 14 22 29.77 1008 10 16 0.00 0.00
7:53 am 07:53 Cloudy 67 19.4 62 16.7 84 84 NE 9 15 29.79 1009 10 16 0.00 0.00
8:20 am 08:20 Mostly Sunny 69 20.6 60 15.6 73 73 NE 10 17 29.80 1009 10 16 0.00 0.00
8:53 am 08:53 Partly Cloudy 70 21.1 59 15 68 68 NE 8 13 29.81 1010 10 16 0.00 0.00
9:53 am 09:53 Mostly Cloudy 73 22.8 59 15 62 62 ENE 12 19 29.82 1010 10 16 0.00 0.00
10:53 am 10:53 Sunny 74 23.3 57 13.9 56 56 ENE 14 22 29.81 1010 10 16 0.00 0.00
11:53 am 11:53 Partly Cloudy 76 24.4 58 14.4 54 54 NE 9 15 29.81 1010 10 16 0.00 0.00
12:53 pm 12:53 Mostly Cloudy 77 25 58 14.4 52 52 ENE 7 11 29.80 1009 10 16 0.00 0.00
1:53 pm 13:53 Mostly Cloudy 79 26.1 60 15.6 52 52 NE 10 17 29.80 1009 10 16 0.00 0.00
2:53 pm 14:53 Mostly Cloudy 80 26.7 61 16.1 52 52 ENE 10 17 29.79 1009 10 16 0.00 0.00
3:53 pm 15:53 Mostly Sunny 80 26.7 59 15 49 49 E 6 9 29.78 1009 10 16 0.00 0.00
4:53 pm 16:53 Partly Cloudy 80 26.7 58 14.4 47 47 VRB 5 7 29.77 1008 10 16 0.00 0.00
5:53 pm 17:53 Sunny 81 27.2 58 14.4 45 45 ENE 5 7 29.77 1008 10 16 0.00 0.00
6:53 pm 18:53 Cloudy 78 25.6 61 16.1 56 56 NNW 7 11 29.78 1009 10 16 0.00 0.00
7:53 pm 19:53 Cloudy with Light Rain 73 22.8 64 17.8 74 74 N 17 28 29.80 1009 10 16 0.00 0.03
8:53 pm 20:53 Cloudy with Rain 69 20.6 61 16.1 76 76 NNE 7 11 29.82 1010 5 8 0.13 3.30
9:53 pm 21:53 Cloudy with Light Rain 67 19.4 61 16.1 81 81 SSE 8 13 29.83 1010 10 16 0.22 5.59
10:53 pm 22:53 Cloudy with Light Rain 67 19.4 63 17.2 87 87 SSE 5 7 29.84 1010 10 16 0.01 0.25
11:53 pm 23:53 Cloudy 67 19.4 65 18.3 93 93 E 5 7 29.84 1011 10 16 0.00 0.03

Powered by AerisWeather